User: anonymous   Login
Location: Lone Wolf Observatory
(41.0360°N, 89.2260°W)
Time: 12:12:16
(UTC-05:00)
Language:

Cosmos 1378 Rocket - Orbit

View from above orbital plane
View from above orbital plane
View from above satellite
View from above satellite

Ground track
Ground track

The orbit data is extracted from the following two-line orbital elements,

1 13272U 82059B   16274.47504853  .00000165  00000-0  16652-4 0  9991
2 13272  82.5135  23.1908 0017128 254.0694 105.8635 14.84550478853362
Epoch (UTC): 30 September 2016 11:24:04
Eccentricity: 0.0017128
inclination: 82.5135°
perigee height: 603 km
apogee height: 627 km
right ascension of ascending node: 23.1908°
argument of perigee: 254.0694°
revolutions per day: 14.84550478
mean anomaly at epoch: 105.8635°
orbit number at epoch: 85336

The dashed part of the orbit path shows where the satellite is in the earth's shadow,  

DLR